Bigfork, MN

4:14 PM CDT on August 24, 2019 (GMT -0500)
Bigfork Municipal

Weather History for KFOZ - July, 2019

Change the Weather History Date:

Monday, July 22, 2019

  Actual Average (KGPZ) Record (KGPZ)
Temperature  
Mean Temperature 60 °F -  
Max Temperature 77 °F 80 °F 96 °F (1941)
Min Temperature 42 °F 54 °F 33 °F (1925)
Degree Days  
Heating Degree Days 6    
Growing Degree Days 10 (Base 50)    
Moisture  
Dew Point 51 °F    
Average Humidity 71    
Maximum Humidity 100    
Minimum Humidity 41    
Precipitation  
Precipitation 0.00 in - - ()
Sea Level Pressure  
Sea Level Pressure 30.26 in    
Wind  
Wind Speed 2 mph (WNW)    
Max Wind Speed 9 mph    
Max Gust Speed 16 mph    
Visibility 10 miles    
Events      
Averages and records for this station are not official NWS values.
T = Trace of Precipitation, MM = Missing Value Source: NWS Daily Summary

Daily Weather History Graph

Daily Weather History Graph

Search for Another Location

Airport or City:

Astronomy

Jul. 22, 2019 Rise Set
Actual Time 5:39 AM CDT 9:02 PM CDT
Civil Twilight 5:01 AM CDT 9:40 PM CDT
Nautical Twilight 4:11 AM CDT 10:29 PM CDT
Astronomical Twilight 3:05 AM CDT 11:34 PM CDT
Moon No Moon Rise 11:17 AM CDT (7/22)
Length of Visible Light 16h 38m
Length of Day
15h 23m
Waning Gibbous, 72% of the Moon is Illuminated
Jul 22
Waning Gibbous
Jul 24
Last Quarter
Jul 31
New
Aug 7
First Quarter
Aug 15
Full

Hourly Weather History & Observations

Time (CDT) Temp. Dew Point Humidity Pressure Visibility Wind Dir Wind Speed Gust Speed Precip Events Conditions
12:13 AM 46.4 °F 46.4 °F 100% 30.24 in 10.0 mi Calm Calm - N/A   Clear
12:33 AM 46.4 °F 44.6 °F 93% 30.24 in 1.8 mi Calm Calm - N/A   Unknown
12:37 AM 46.4 °F 44.6 °F 93% 30.24 in 2.0 mi Calm Calm - N/A   Unknown
12:56 AM 46.4 °F 44.6 °F 93% 30.25 in 3.0 mi Calm Calm - N/A   Unknown
1:13 AM 44.6 °F 44.6 °F 100% 30.25 in 10.0 mi Calm Calm - N/A   Clear
1:33 AM 44.6 °F 44.6 °F 100% 30.25 in 10.0 mi Calm Calm - N/A   Clear
1:34 AM 44.6 °F 44.6 °F 100% 30.25 in 10.0 mi Calm Calm - N/A   Clear
1:53 AM 44.6 °F 44.6 °F 100% 30.25 in 10.0 mi Calm Calm - N/A   Clear
2:16 AM 44.6 °F 42.8 °F 93% 30.25 in 10.0 mi Calm Calm - N/A   Clear
2:34 AM 44.6 °F 42.8 °F 93% 30.25 in 4.0 mi Calm Calm - N/A   Clear
2:53 AM 44.6 °F 42.8 °F 93% 30.25 in 10.0 mi Calm Calm - N/A   Clear
2:54 AM 44.6 °F 42.8 °F 93% 30.25 in 10.0 mi Calm Calm - N/A   Clear
3:13 AM 44.6 °F 42.8 °F 93% 30.25 in 10.0 mi Calm Calm - N/A   Clear
3:14 AM 42.8 °F 42.8 °F 100% 30.25 in 10.0 mi Calm Calm - N/A   Clear
3:33 AM 42.8 °F 42.8 °F 100% 30.25 in 10.0 mi Calm Calm - N/A   Clear
3:38 AM 42.8 °F 42.8 °F 100% 30.25 in 10.0 mi Calm Calm - N/A   Clear
3:55 AM 42.8 °F 42.8 °F 100% 30.26 in 10.0 mi Calm Calm - N/A   Clear
4:13 AM 42.8 °F 42.8 °F 100% 30.26 in 10.0 mi Calm Calm - N/A   Clear
4:33 AM 44.6 °F 42.8 °F 93% 30.26 in 10.0 mi Calm Calm - N/A   Clear
4:34 AM 44.6 °F 42.8 °F 93% 30.26 in 10.0 mi Calm Calm - N/A   Clear
4:53 AM 44.6 °F 42.8 °F 93% 30.26 in 10.0 mi Calm Calm - N/A   Clear
4:54 AM 44.6 °F 42.8 °F 93% 30.26 in 10.0 mi Calm Calm - N/A   Clear
5:17 AM 42.8 °F 42.8 °F 100% 30.26 in 10.0 mi Calm Calm - N/A   Clear
5:34 AM 42.8 °F 42.8 °F 100% 30.26 in 10.0 mi Calm Calm - N/A   Clear
5:54 AM 42.8 °F 42.8 °F 100% 30.27 in 10.0 mi Calm Calm - N/A   Clear
6:13 AM 42.8 °F 42.8 °F 100% 30.27 in 10.0 mi Calm Calm - N/A   Clear
6:33 AM 44.6 °F 42.8 °F 93% 30.27 in 10.0 mi Calm Calm - N/A   Clear
6:37 AM 44.6 °F 42.8 °F 93% 30.28 in 10.0 mi Calm Calm - N/A   Clear
6:55 AM 46.4 °F 44.6 °F 93% 30.28 in 10.0 mi Calm Calm - N/A   Scattered Clouds
7:14 AM 48.2 °F 48.2 °F 100% 30.28 in 10.0 mi Calm Calm - N/A   Scattered Clouds
7:33 AM 53.6 °F 51.8 °F 94% 30.28 in 10.0 mi Calm Calm - N/A   Scattered Clouds
7:34 AM 53.6 °F 51.8 °F 94% 30.28 in 10.0 mi Calm Calm - N/A   Scattered Clouds
7:53 AM 57.2 °F 53.6 °F 88% 30.28 in 10.0 mi Calm Calm - N/A   Clear
8:15 AM 59.0 °F 53.6 °F 82% 30.28 in 10.0 mi Calm Calm - N/A   Clear
8:33 AM 62.6 °F 55.4 °F 77% 30.28 in 10.0 mi Calm Calm - N/A   Scattered Clouds
8:53 AM 62.6 °F 55.4 °F 77% 30.28 in 10.0 mi NW 3.5 mph - N/A   Clear
9:13 AM 66.2 °F 55.4 °F 68% 30.28 in 10.0 mi Calm Calm - N/A   Scattered Clouds
9:14 AM 66.2 °F 55.4 °F 68% 30.28 in 10.0 mi NW 3.5 mph - N/A   Scattered Clouds
9:37 AM 66.2 °F 55.4 °F 68% 30.28 in 10.0 mi NW 4.6 mph - N/A   Clear
9:54 AM 69.8 °F 55.4 °F 60% 30.28 in 10.0 mi NNW 4.6 mph - N/A   Clear
10:14 AM 69.8 °F 55.4 °F 60% 30.28 in 10.0 mi NNW 5.8 mph - N/A   Clear
10:33 AM 69.8 °F 55.4 °F 60% 30.28 in 10.0 mi NNW 6.9 mph - N/A   Clear
10:34 AM 69.8 °F 55.4 °F 60% 30.28 in 10.0 mi NNW 5.8 mph - N/A   Clear
10:53 AM 71.6 °F 55.4 °F 57% 30.28 in 10.0 mi NNW 4.6 mph - N/A   Clear
10:57 AM 71.6 °F 55.4 °F 57% 30.28 in 10.0 mi NW 4.6 mph - N/A   Clear
11:16 AM 73.4 °F 55.4 °F 53% 30.28 in 10.0 mi NW 4.6 mph - N/A   Clear
11:33 AM 73.4 °F 53.6 °F 50% 30.28 in 10.0 mi NW 5.8 mph - N/A   Clear
11:53 AM 73.4 °F 53.6 °F 50% 30.28 in 10.0 mi NNW 6.9 mph - N/A   Scattered Clouds
11:54 AM 73.4 °F 53.6 °F 50% 30.28 in 10.0 mi NW 5.8 mph - N/A   Scattered Clouds
12:13 PM 73.4 °F 53.6 °F 50% 30.27 in 10.0 mi NW 5.8 mph - N/A   Scattered Clouds
12:36 PM 73.4 °F 53.6 °F 50% 30.28 in 10.0 mi NW 5.8 mph - N/A   Scattered Clouds
12:54 PM 75.2 °F 53.6 °F 47% 30.28 in 10.0 mi NNW 5.8 mph - N/A   Scattered Clouds
1:14 PM 73.4 °F 53.6 °F 50% 30.27 in 10.0 mi WNW 4.6 mph - N/A   Scattered Clouds
1:33 PM 75.2 °F 53.6 °F 47% 30.27 in 10.0 mi WNW 3.5 mph - N/A   Scattered Clouds
1:34 PM 75.2 °F 53.6 °F 47% 30.27 in 10.0 mi WNW 4.6 mph - N/A   Scattered Clouds
1:53 PM 73.4 °F 53.6 °F 50% 30.27 in 10.0 mi NNW 3.5 mph - N/A   Scattered Clouds
1:58 PM 75.2 °F 53.6 °F 47% 30.27 in 10.0 mi WNW 6.9 mph - N/A   Scattered Clouds
2:15 PM 75.2 °F 53.6 °F 47% 30.26 in 10.0 mi NW 8.1 mph - N/A   Scattered Clouds
2:33 PM 75.2 °F 51.8 °F 44% 30.26 in 10.0 mi NW 6.9 mph - N/A   Clear
2:53 PM 75.2 °F 51.8 °F 44% 30.26 in 10.0 mi WNW 6.9 mph - N/A   Scattered Clouds
2:54 PM 75.2 °F 51.8 °F 44% 30.26 in 10.0 mi NW 6.9 mph - N/A   Scattered Clouds
3:13 PM 77.0 °F 51.8 °F 41% 30.25 in 10.0 mi West 6.9 mph - N/A   Scattered Clouds
3:14 PM 77.0 °F 51.8 °F 41% 30.26 in 10.0 mi West 6.9 mph - N/A   Scattered Clouds
3:36 PM 77.0 °F 53.6 °F 44% 30.25 in 10.0 mi West 5.8 mph - N/A   Scattered Clouds
3:55 PM 75.2 °F 51.8 °F 44% 30.25 in 10.0 mi West 8.1 mph - N/A   Scattered Clouds
4:14 PM 75.2 °F 53.6 °F 47% 30.24 in 10.0 mi WNW 5.8 mph - N/A   Scattered Clouds
4:33 PM 75.2 °F 53.6 °F 47% 30.24 in 10.0 mi West 8.1 mph - N/A   Scattered Clouds
4:34 PM 75.2 °F 53.6 °F 47% 30.24 in 10.0 mi West 5.8 mph - N/A   Scattered Clouds
4:53 PM 75.2 °F 51.8 °F 44% 30.24 in 10.0 mi West 8.1 mph - N/A   Clear
5:15 PM 75.2 °F 53.6 °F 47% 30.23 in 10.0 mi WSW 8.1 mph - N/A   Clear
5:34 PM 75.2 °F 53.6 °F 47% 30.23 in 10.0 mi West 5.8 mph - N/A   Clear
5:53 PM 75.2 °F 51.8 °F 44% 30.23 in 10.0 mi WSW 9.2 mph 16.1 mph N/A   Clear
5:54 PM 73.4 °F 51.8 °F 47% 30.23 in 10.0 mi WSW 8.1 mph 16.1 mph N/A   Clear
6:13 PM 75.2 °F 51.8 °F 44% 30.23 in 10.0 mi West 5.8 mph - N/A   Scattered Clouds
6:14 PM 75.2 °F 51.8 °F 44% 30.23 in 10.0 mi West 6.9 mph - N/A   Scattered Clouds
6:37 PM 73.4 °F 51.8 °F 47% 30.22 in 10.0 mi WSW 5.8 mph - N/A   Clear
6:54 PM 73.4 °F 51.8 °F 47% 30.23 in 10.0 mi West 6.9 mph - N/A   Clear
7:14 PM 73.4 °F 51.8 °F 47% 30.23 in 10.0 mi West 6.9 mph - N/A   Clear
7:33 PM 71.6 °F 51.8 °F 50% 30.23 in 10.0 mi West 4.6 mph - N/A   Clear
7:34 PM 71.6 °F 51.8 °F 50% 30.23 in 10.0 mi WNW 3.5 mph - N/A   Clear
7:53 PM 71.6 °F 51.8 °F 50% 30.23 in 10.0 mi West 5.8 mph - N/A   Clear
7:57 PM 71.6 °F 51.8 °F 50% 30.24 in 10.0 mi WSW 3.5 mph - N/A   Clear
8:16 PM 69.8 °F 51.8 °F 53% 30.24 in 10.0 mi West 3.5 mph - N/A   Clear
8:33 PM 69.8 °F 53.6 °F 56% 30.24 in 10.0 mi Calm Calm - N/A   Scattered Clouds
8:53 PM 64.4 °F 55.4 °F 73% 30.24 in 10.0 mi Calm Calm - N/A   Scattered Clouds
8:54 PM 64.4 °F 55.4 °F 73% 30.24 in 10.0 mi Calm Calm - N/A   Scattered Clouds
9:13 PM 64.4 °F 55.4 °F 73% 30.24 in 10.0 mi Calm Calm - N/A   Scattered Clouds
9:14 PM 64.4 °F 55.4 °F 73% 30.24 in 10.0 mi Calm Calm - N/A   Scattered Clouds
9:35 PM 66.2 °F 53.6 °F 64% 30.24 in 10.0 mi Calm Calm - N/A   Scattered Clouds
9:54 PM 62.6 °F 55.4 °F 77% 30.25 in 10.0 mi Calm Calm - N/A   Scattered Clouds
10:13 PM 60.8 °F 55.4 °F 82% 30.25 in 10.0 mi Calm Calm - N/A   Scattered Clouds
10:14 PM 60.8 °F 55.4 °F 82% 30.25 in 10.0 mi Calm Calm - N/A   Scattered Clouds
10:33 PM 57.2 °F 55.4 °F 94% 30.25 in 10.0 mi Calm Calm - N/A   Clear
10:55 PM 57.2 °F 53.6 °F 88% 30.26 in 10.0 mi Calm Calm - N/A   Clear
11:13 PM 57.2 °F 53.6 °F 88% 30.25 in 10.0 mi Calm Calm - N/A   Scattered Clouds
11:33 PM 55.4 °F 53.6 °F 94% 30.25 in 10.0 mi Calm Calm - N/A   Clear
11:53 PM 55.4 °F 53.6 °F 94% 30.25 in 10.0 mi Calm Calm - N/A   Clear
11:54 PM 55.4 °F 53.6 °F 94% 30.25 in 10.0 mi Calm Calm - N/A   Clear